User: anonymous   Login
Location: Hurecourt
(47.9030°N, 6.0653°E)
Time: 21:04:37
(UTC+00:00)
Language:

CZ-4 R/B - Orbit

View from above orbital plane
View from above orbital plane
View from above satellite
View from above satellite

Ground track
Ground track

The orbit data is extracted from the following two-line orbital elements,

1 28059U 03049C   20263.48489773 +.00000025 +00000-0 +17727-4 0  9998
2 28059 098.4817 181.0613 0049400 210.0151 149.8211 14.52610014896485
Epoch (UTC): 19 September 2020 11:38:15
Eccentricity: 0.0049400
inclination: 98.4817°
perigee height: 682 km
apogee height: 752 km
right ascension of ascending node: 181.0613°
argument of perigee: 210.0151°
revolutions per day: 14.52610014
mean anomaly at epoch: 149.8211°
orbit number at epoch: 89648

The dashed part of the orbit path shows where the satellite is in the earth's shadow,  

DLR